Overview Statistics Trail Chart Weather Telemetry Raw packets
 

This is the latest recevied weather packets stored in our database for station/object EA2MKR. If no packets are shown the sender has not sent any weather packets the latest 10 day(s).

<< 95 96 97 98 99 100 101 >>
Time Temp. Humidity Pressure Rain* Wind** Luminosity Snow
1787921259 23.33° C 39% 956.2 hPa 0 mm - - -
1787920956 23.33° C 39% 956.2 hPa 0 mm - - -
1787920565 23.33° C 39% 956.2 hPa 0 mm - - -
1787920265 23.33° C 39% 956.1 hPa 0 mm - - -
1787919966 23.33° C 40% 956.3 hPa 0 mm - - -
1787919665 22.78° C 40% 956.2 hPa 0 mm - - -
1787919364 22.78° C 40% 956.2 hPa 0 mm - - -
1787919065 22.22° C 41% 956.3 hPa 0 mm - - -
1787918764 21.67° C 41% 956.2 hPa 0 mm - - -
1787918465 21.67° C 40% 956.3 hPa 0 mm - - -
1787918165 21.67° C 42% 956.5 hPa 0 mm - - -
1787917864 21.11° C 42% 956.5 hPa 0 mm - - -
1787917642 21.11° C 43% 956.5 hPa 0 mm - - -
1787917338 21.11° C 43% 956.5 hPa 0 mm - - -
1787916963 20.56° C 44% 956.5 hPa 0 mm - - -
1787916663 20.56° C 45% 956.6 hPa 0 mm - - -
1787916363 20° C 45% 956.5 hPa 0 mm - - -
1787916064 20° C 45% 956.7 hPa 0 mm - - -
1787915841 20° C 46% 956.5 hPa 0 mm - - -
1787915463 20° C 47% 956.5 hPa 0 mm - - -
1787915239 20° C 47% 956.7 hPa 0 mm - - -
1787914863 20° C 47% 956.7 hPa 0 mm - - -
1787914637 19.44° C 47% 956.8 hPa 0 mm - - -
1787914263 20° C 46% 957 hPa 0 mm - - -
1787913963 20.56° C 45% 956.7 hPa 0 mm - - -

* Rain latest hour (hover to see other rain measurements)
** Current wind speed in m/s (hover to see current wind gust speed)